Temperature
18 18 18 18 18 19 19 19 19 19 19 19 19 19 19 19 19 19 19 19 19 19 19 19 19 19 19 19 19 19 19 18 19 19 18 18 18 18 18 18 18 18 18
18 18 18 18 18 18 18 18 18 18 18 18 18 18 18 18 19 19 19 19 19 19 19 19 19 19 19 19 19 19 18 18 18 18 18 18 18 18 18 18 18 18 18
18 18 18 18 18 18 18 18 18 18 18 18 18 18 18 18 18 18 18 18 18 18 18 18 18 18 18 18 18 18 18 18 18 18 18 18 18 18 18 18 18 18 18
18 18 18 18 18 18 18 18 18 18 18 18 18 18 18 18 18 18 18 18 18 18 18 18 18 18 18 18 18 18 18 18 18 18 18 18 18 18 18 18 18 18 18
18 18 18 18 18 18 18 18 17 17 17 17 17 17 17 17 17 17 17 17 17 17 18 18 18 18 18 18 18 18 18 18 18 18 18 18 18 18 18 18 18 18 18
18 18 18 18 18 17 17 17 17 17 17 17 17 17 17 17 17 17 17 17 17 17 17 17 17 17 18 18 18 18 18 18 18 18 18 18 18 18 18 18 18 18 18
18 18 18 18 17 17 17 17 17 17 17 16 16 16 16 16 16 16 16 16 16 17 17 17 17 17 17 17 17 17 17 18 18 18 18 18 18 18 18 18 18 18 18
18 18 18 17 17 17 17 17 17 16 16 16 16 16 16 16 16 16 16 16 16 16 16 16 17 17 17 17 17 17 17 17 17 18 18 18 18 18 18 18 18 18 18
18 18 17 17 17 17 17 16 16 16 16 16 16 16 16 16 16 16 16 16 16 16 16 16 16 16 17 17 17 17 17 17 17 17 17 18 18 18 18 18 18 18 18
18 18 17 17 17 17 16 16 16 16 15 15 15 15 15 15 15 15 15 15 15 15 16 16 16 16 16 16 17 17 17 17 17 17 17 17 17 17 18 18 18 18 18
18 18 17 17 17 17 16 16 16 16 15 15 15 15 15 15 15 15 15 15 15 15 15 15 16 16 16 16 16 16 17 17 17 17 17 17 17 17 17 18 18 18 18
18 18 18 17 17 17 16 16 16 15 15 15 15 15 15 14 14 14 15 15 15 15 15 15 15 15 15 16 16 16 16 17 17 17 17 17 17 17 17 17 18 18 18
18 18 18 17 17 17 16 16 16 15 15 15 15 15 14 14 14 14 14 14 14 14 15 15 15 15 15 15 16 16 16 16 17 17 17 17 17 17 17 17 17 17 17
19 18 18 18 17 17 16 16 16 15 15 15 15 14 14 14 14 14 14 14 14 14 14 14 14 15 15 15 15 15 16 16 16 17 17 17 17 17 17 17 17 17 17
19 19 18 18 17 17 16 16 16 15 15 15 15 14 14 14 14 14 14 14 14 14 14 14 14 14 14 15 15 15 15 16 16 16 17 17 17 17 17 17 17 17 17
19 19 18 18 17 17 16 16 16 15 15 15 14 14 14 14 14 14 14 14 14 14 14 14 14 14 14 15 15 15 15 15 16 16 16 17 17 17 17 17 17 17 17
19 19 18 18 17 17 16 16 16 15 15 15 14 14 14 14 13 13 13 13 13 13 14 14 14 14 14 14 15 15 15 15 15 16 16 16 17 17 17 17 17 17 17
19 19 19 18 18 17 16 16 16 15 15 14 14 14 14 13 13 13 13 13 13 13 13 13 14 14 14 14 15 15 15 15 15 16 16 16 16 16 17 17 17 17 17
20 19 19 18 18 17 16 16 16 15 15 14 14 14 13 13 13 13 13 13 13 13 13 13 13 14 14 14 14 15 15 15 15 15 16 16 16 16 16 17 17 17 17
20 19 19 18 18 17 17 16 16 15 15 14 14 14 13 13 13 13 13 13 13 13 13 13 13 14 14 14 14 14 15 15 15 15 15 15 16 16 16 16 17 17 17
20 20 19 18 18 17 17 16 16 15 15 14 14 13 13 13 13 13 13 13 13 13 13 13 13 13 14 14 14 14 15 15 15 15 15 15 16 16 16 16 16 17 17
20 20 19 19 18 17 17 16 16 15 15 14 14 13 13 13 13 13 12 12 12 13 13 13 13 13 13 14 14 14 14 14 15 15 15 15 15 16 16 16 16 16 17
21 20 20 19 18 17 17 16 16 15 15 14 14 13 13 13 13 13 12 12 12 12 13 13 13 13 13 13 14 14 14 14 14 14 15 15 15 15 16 16 16 16 16
21 20 20 19 18 18 17 16 16 15 15 14 14 14 13 13 13 13 12 12 12 12 12 12 13 13 13 13 13 14 14 14 14 14 14 15 15 15 15 16 16 16 16
21 20 20 19 18 18 17 17 16 15 15 14 14 14 13 13 13 13 13 12 12 12 12 12 12 13 13 13 13 13 14 14 14 14 14 14 15 15 15 15 15 16 16
21 20 20 19 19 18 17 17 16 16 15 14 14 14 13 13 13 13 13 12 12 12 12 12 12 12 13 13 13 13 13 14 14 14 14 14 14 15 15 15 15 15 16
Wind_Speed
3 3 7 8 8 8 8 8 8 7 7 7 7 6 6 6 6 6 5 5 5 5 5 5 4 4 5 4 4 5 5 4 4 4 4 3 3 3 3 4 4 4 7
5 5 8 8 8 8 7 7 6 6 6 5 5 5 4 4 4 4 4 4 3 3 3 3 3 3 3 3 3 3 4 3 3 3 3 3 2 2 3 3 3 3 6
6 6 7 8 7 7 7 6 6 5 5 4 4 3 3 3 2 2 2 2 2 2 1 1 1 1 1 1 2 2 3 3 3 3 3 3 2 1 2 3 3 4 5
6 6 7 8 7 7 6 5 5 4 4 3 3 2 1 1 0 0 1 1 1 1 1 0 0 0 0 1 1 2 3 3 3 2 2 2 2 0 2 2 2 3 4
6 6 6 8 7 6 5 5 4 3 3 2 2 1 1 1 2 2 2 3 3 3 2 2 2 2 2 2 2 2 2 3 3 3 2 1 2 2 1 2 3 3 4
5 5 6 7 6 6 5 4 3 2 2 2 2 2 2 3 3 4 4 4 4 4 4 3 3 3 3 3 3 2 2 3 3 2 2 1 2 3 2 3 2 3 3
5 4 5 6 5 5 4 4 3 2 1 2 2 3 3 4 4 5 5 5 5 5 5 4 4 5 4 4 4 4 3 3 2 1 2 2 3 4 3 3 3 3 3
5 4 3 5 5 4 3 3 2 1 1 2 3 3 4 4 4 5 5 5 5 5 5 5 5 6 6 5 5 5 4 3 1 1 2 3 5 5 4 4 4 4 4
4 3 2 2 3 3 2 2 1 1 1 3 4 4 5 5 5 6 6 5 6 6 6 6 6 6 7 6 6 6 5 3 1 2 3 3 5 6 5 5 5 5 4
3 2 1 1 1 0 0 1 0 1 2 3 4 5 6 6 7 7 7 6 6 6 6 6 6 6 7 6 6 6 5 3 1 2 3 4 6 6 6 6 6 5 5
2 2 2 2 2 1 1 2 2 3 4 5 6 6 6 6 6 6 7 6 5 5 6 6 6 6 6 5 5 6 4 2 2 3 4 5 6 6 6 6 7 7 6
5 4 3 3 2 2 1 1 2 3 4 4 5 5 5 5 6 6 7 8 7 6 6 6 6 5 4 3 4 3 1 2 3 3 4 5 6 6 6 7 8 8 7
6 5 4 4 3 2 1 0 1 2 3 3 4 4 4 5 5 6 6 7 7 7 6 6 6 5 4 3 2 2 2 2 3 4 5 6 6 6 5 7 8 8 8
6 5 4 4 4 3 2 1 1 1 1 2 3 3 3 2 3 3 3 4 4 4 4 4 3 3 3 3 2 2 3 3 3 4 5 6 6 6 5 6 7 8 8
6 6 4 5 4 3 2 1 2 1 1 1 2 3 2 1 2 2 2 3 3 4 3 3 3 3 2 2 2 2 2 3 3 3 4 6 6 6 6 6 7 7 8
8 7 5 5 5 4 3 2 2 2 1 2 2 2 2 2 1 1 2 2 3 4 3 2 3 2 2 2 2 2 2 2 3 3 4 5 5 5 5 5 6 8 8
8 7 6 5 5 5 4 3 2 2 3 2 2 2 2 2 2 2 2 3 3 4 4 3 2 2 2 2 2 2 2 2 2 2 2 3 3 3 4 5 5 7 8
7 7 6 6 6 5 4 3 2 2 3 2 1 2 2 2 2 2 2 2 3 4 3 2 2 2 2 2 2 2 1 1 2 1 1 1 2 2 3 4 5 6 7
9 8 7 6 6 5 4 3 2 3 2 1 1 1 2 3 3 2 2 2 4 3 3 3 2 1 2 3 2 1 1 1 2 1 0 1 1 1 2 3 4 5 6
8 8 7 6 6 5 4 3 2 2 1 1 1 1 2 3 3 2 1 3 3 3 3 3 2 2 1 2 2 2 2 1 1 1 1 0 0 1 1 1 1 2 4
8 8 8 7 6 5 3 2 2 1 0 1 1 1 2 2 3 2 2 3 3 3 3 3 2 2 2 2 1 2 3 2 2 1 1 0 0 0 1 1 1 1 2
9 9 8 8 7 6 4 3 2 2 1 1 1 2 2 3 3 2 2 2 2 3 4 4 2 2 2 2 1 1 2 3 3 3 2 1 1 0 0 1 1 1 2
10 11 11 9 8 7 5 3 3 3 2 1 1 2 2 3 3 2 2 2 2 2 2 3 2 2 2 2 2 1 2 1 2 2 2 3 2 1 1 1 1 2 2
12 10 9 9 8 7 6 5 5 3 3 3 2 2 3 3 2 2 2 2 2 2 2 3 2 1 1 1 2 1 1 2 1 1 2 2 2 2 2 1 1 2 2
9 9 9 8 8 7 6 6 5 3 3 1 1 2 2 2 2 2 2 2 2 2 2 3 2 2 1 0 1 1 1 2 1 2 1 2 2 2 2 2 1 2 2
7 8 8 9 8 7 7 6 6 6 4 3 2 2 2 2 3 3 1 1 2 2 2 2 2 1 1 1 1 1 1 1 0 1 1 0 1 2 2 2 2 2 2
Wind_Direction
186 191 165 144 133 126 123 122 120 120 119 116 115 113 113 112 110 110 112 115 111 106 103 104 99 93 87 80 74 72 68 66 67 64 58 58 69 79 83 78 67 51 55
155 167 158 145 136 130 127 126 126 125 121 119 117 116 114 112 113 115 117 117 115 114 113 112 107 98 91 79 67 61 57 53 49 49 46 42 64 85 86 92 83 63 61
135 147 151 146 138 131 128 126 125 123 121 118 119 120 117 115 118 124 132 129 130 131 134 132 127 116 96 72 52 41 34 28 24 30 40 29 15 98 113 107 93 77 69
136 140 145 143 136 130 127 124 122 119 116 117 119 116 112 104 118 223 255 246 236 216 209 212 229 241 293 322 341 6 7 6 6 18 37 16 332 176 141 130 104 87 78
127 134 146 142 136 131 127 121 115 107 97 94 90 65 21 346 319 307 293 285 278 266 256 254 258 267 271 281 297 322 343 353 357 14 18 1 327 274 181 150 121 100 90
126 132 147 142 137 132 128 121 114 101 79 58 32 355 332 319 309 306 301 296 288 282 275 269 269 273 283 284 288 301 318 334 358 9 356 321 293 268 215 174 152 130 110
137 139 155 152 146 140 133 123 116 98 59 27 7 352 339 328 321 318 313 307 299 290 286 279 272 271 272 277 284 290 297 313 346 346 330 292 274 259 221 189 171 157 139
145 143 160 164 155 151 143 135 122 94 50 18 1 348 341 335 330 325 315 310 308 304 295 289 281 276 275 277 283 288 292 305 308 323 304 281 267 255 225 199 182 166 154
140 136 149 161 162 168 158 146 124 45 18 4 355 349 344 342 338 331 321 311 304 299 295 288 283 278 276 277 280 288 289 292 282 267 278 274 268 255 230 205 194 179 168
140 147 162 171 161 167 263 239 293 346 11 5 1 0 360 358 351 342 336 322 309 305 304 300 294 289 280 275 273 274 275 282 254 270 281 276 269 254 234 211 199 186 175
182 193 195 201 201 213 263 283 336 358 9 8 6 9 15 9 357 348 344 342 335 329 325 321 316 311 301 291 279 271 272 251 240 259 276 279 278 259 235 216 205 195 183
209 213 208 212 203 204 253 346 348 8 11 10 6 9 14 10 3 3 359 4 3 1 357 350 344 338 334 328 302 298 285 256 249 255 270 279 278 265 239 218 211 203 189
210 211 201 205 197 191 208 221 15 22 3 1 12 14 19 18 13 13 9 5 5 6 5 360 2 357 348 330 306 286 266 258 251 258 271 278 277 267 245 218 212 209 197
201 212 201 183 182 185 176 164 131 84 9 8 18 30 38 24 9 6 6 354 359 356 348 348 343 340 339 322 297 272 261 253 246 255 270 275 274 264 245 219 207 209 206
201 210 198 175 180 172 150 161 129 140 116 43 36 38 60 65 12 5 354 354 356 357 346 333 332 329 327 315 298 271 259 253 249 253 270 281 271 259 245 228 214 216 213
204 204 193 182 181 163 159 159 152 151 122 88 58 41 60 75 50 22 2 354 350 345 336 324 320 317 307 298 299 282 263 260 251 253 268 281 271 255 250 236 221 220 215
200 194 188 184 166 160 157 157 145 143 126 108 78 54 59 61 55 46 16 358 339 340 341 339 338 336 318 313 305 295 270 265 251 248 265 276 274 257 251 246 231 225 219
187 182 187 179 159 157 147 139 132 128 116 107 85 54 40 33 42 45 20 349 340 348 349 338 340 330 326 321 308 303 298 289 275 243 250 278 273 262 257 247 241 232 223
184 175 175 164 158 149 132 114 110 105 96 89 80 46 17 20 28 38 7 343 350 355 352 340 350 319 311 315 299 298 307 292 292 287 300 268 249 234 248 253 244 234 224
174 168 164 156 149 130 111 91 74 70 50 34 28 353 353 5 12 24 9 354 358 359 354 350 331 334 307 306 328 1 339 326 333 354 328 282 229 213 172 216 226 232 220
167 168 167 162 159 145 136 133 135 169 264 318 316 339 349 356 3 15 1 356 359 358 343 340 337 346 351 343 24 10 360 8 26 22 348 320 5 19 110 129 148 189 206
178 177 175 176 172 175 166 155 155 151 192 250 301 333 344 348 349 356 3 351 354 356 355 357 7 360 354 12 55 63 13 4 5 16 14 15 19 65 89 91 121 153 163
187 186 186 183 179 180 160 121 91 68 40 12 329 317 326 335 335 346 348 342 350 2 342 342 357 25 353 355 30 110 124 209 324 349 9 22 22 44 27 36 108 121 152
197 187 183 179 179 178 165 162 156 163 190 224 234 271 309 328 331 336 340 348 347 348 340 332 9 13 29 347 349 23 113 174 134 3 348 358 20 30 15 19 62 98 127
188 181 179 174 180 178 174 175 168 173 195 215 238 283 309 323 323 326 330 348 340 338 339 344 357 15 27 49 348 350 28 44 78 121 1 345 1 359 7 14 34 58 84
180 178 174 176 186 183 181 182 184 185 188 195 224 254 284 303 305 309 313 337 323 322 329 332 339 7 18 46 53 54 82 73 83 111 139 352 343 336 355 19 33 30 49
Height
1517 1518 1519 1521 1522 1523 1523 1524 1525 1526 1526 1527 1527 1528 1528 1528 1528 1528 1529 1528 1528 1528 1528 1528 1528 1527 1527 1527 1526 1526 1526 1525 1525 1524 1524 1524 1523 1523 1523 1522 1521 1520 1520
1517 1518 1520 1521 1522 1523 1524 1524 1525 1526 1526 1527 1527 1528 1528 1528 1528 1529 1529 1529 1529 1528 1528 1528 1528 1528 1527 1527 1527 1526 1526 1526 1526 1525 1525 1524 1524 1524 1523 1523 1522 1522 1521
1518 1519 1520 1521 1522 1523 1524 1525 1525 1526 1526 1527 1527 1527 1528 1528 1528 1528 1528 1528 1528 1528 1528 1528 1528 1528 1528 1527 1527 1527 1526 1526 1526 1526 1525 1525 1525 1524 1524 1524 1523 1522 1522
1519 1520 1521 1522 1523 1523 1524 1525 1525 1526 1526 1526 1527 1527 1527 1527 1528 1528 1528 1528 1528 1528 1528 1528 1528 1528 1527 1527 1527 1527 1526 1526 1526 1526 1526 1526 1525 1525 1525 1524 1524 1523 1523
1520 1521 1522 1522 1523 1523 1524 1524 1525 1525 1525 1526 1526 1526 1526 1526 1527 1527 1526 1527 1527 1527 1526 1527 1527 1527 1527 1527 1527 1527 1526 1526 1526 1526 1526 1526 1526 1525 1525 1525 1525 1524 1524
1520 1521 1522 1523 1523 1524 1524 1524 1524 1525 1525 1525 1525 1525 1525 1525 1525 1525 1525 1525 1525 1525 1525 1525 1525 1526 1526 1526 1526 1526 1526 1526 1526 1526 1526 1526 1526 1526 1525 1525 1525 1525 1525
1521 1522 1523 1523 1524 1524 1524 1524 1524 1524 1524 1524 1524 1524 1524 1524 1523 1523 1524 1524 1524 1523 1523 1524 1524 1524 1524 1525 1525 1525 1525 1525 1525 1526 1526 1526 1526 1526 1526 1526 1526 1526 1526
1522 1523 1523 1524 1524 1524 1524 1524 1524 1524 1524 1524 1523 1523 1523 1523 1522 1522 1522 1522 1522 1522 1522 1522 1522 1522 1523 1523 1523 1524 1524 1524 1524 1525 1525 1525 1525 1526 1526 1526 1526 1526 1526
1523 1524 1524 1524 1525 1525 1525 1525 1524 1524 1524 1523 1523 1523 1522 1522 1521 1521 1520 1520 1520 1520 1520 1520 1520 1520 1520 1521 1521 1522 1522 1523 1523 1523 1524 1524 1525 1525 1525 1526 1526 1527 1527
1524 1524 1524 1525 1525 1525 1525 1525 1524 1524 1524 1523 1523 1522 1522 1521 1520 1520 1519 1519 1519 1518 1518 1518 1518 1518 1518 1518 1519 1519 1520 1521 1521 1522 1523 1523 1524 1525 1525 1526 1526 1527 1527
1524 1524 1525 1525 1525 1525 1525 1525 1525 1524 1524 1523 1523 1522 1521 1521 1520 1519 1519 1518 1517 1517 1517 1516 1516 1515 1516 1516 1516 1517 1518 1519 1519 1520 1521 1522 1523 1524 1524 1525 1526 1527 1527
1523 1524 1524 1525 1525 1525 1525 1525 1525 1524 1524 1523 1523 1522 1521 1520 1520 1519 1518 1517 1516 1516 1515 1515 1514 1514 1514 1514 1514 1515 1515 1516 1518 1519 1520 1521 1522 1523 1524 1524 1525 1526 1527
1523 1524 1524 1525 1525 1525 1525 1525 1525 1524 1524 1523 1522 1522 1521 1520 1519 1518 1517 1516 1516 1515 1514 1514 1513 1512 1512 1512 1512 1513 1513 1514 1515 1516 1518 1519 1520 1521 1522 1523 1525 1526 1527
1523 1523 1524 1524 1525 1525 1525 1525 1524 1524 1524 1523 1522 1521 1520 1519 1518 1518 1516 1515 1514 1514 1513 1512 1511 1511 1510 1510 1510 1511 1511 1512 1513 1514 1516 1517 1518 1519 1521 1522 1524 1525 1526
1522 1523 1524 1524 1524 1524 1524 1524 1524 1523 1523 1522 1522 1521 1520 1519 1518 1517 1515 1514 1513 1512 1511 1511 1510 1509 1509 1508 1508 1509 1509 1510 1511 1512 1513 1515 1516 1518 1519 1521 1522 1524 1525
1521 1522 1523 1524 1524 1524 1524 1523 1523 1523 1522 1522 1521 1520 1519 1518 1517 1516 1514 1513 1512 1511 1510 1509 1508 1507 1507 1507 1507 1507 1507 1508 1509 1510 1511 1513 1514 1516 1517 1519 1521 1522 1524
1520 1521 1522 1523 1523 1523 1523 1523 1523 1522 1522 1521 1520 1519 1518 1517 1516 1515 1513 1512 1510 1509 1508 1507 1506 1506 1505 1505 1505 1505 1505 1506 1507 1508 1509 1511 1512 1514 1515 1517 1519 1521 1523
1519 1520 1521 1522 1522 1522 1522 1522 1522 1522 1521 1520 1519 1518 1518 1516 1515 1514 1512 1511 1509 1508 1506 1505 1504 1504 1504 1503 1503 1503 1504 1504 1505 1506 1507 1509 1510 1512 1514 1516 1517 1519 1521
1518 1519 1520 1521 1522 1522 1522 1522 1521 1521 1520 1520 1519 1518 1517 1516 1515 1513 1512 1510 1508 1507 1505 1504 1503 1502 1502 1502 1501 1502 1502 1502 1503 1504 1505 1507 1508 1510 1512 1514 1516 1518 1520
1517 1518 1519 1520 1521 1521 1521 1521 1521 1520 1520 1519 1518 1517 1516 1515 1514 1513 1511 1510 1508 1506 1505 1503 1502 1501 1501 1501 1500 1500 1500 1501 1501 1502 1503 1505 1507 1508 1510 1512 1514 1516 1518
1515 1516 1518 1519 1520 1520 1520 1520 1520 1519 1519 1519 1518 1517 1516 1515 1513 1512 1511 1509 1508 1506 1504 1503 1502 1501 1500 1500 1500 1499 1499 1499 1500 1501 1502 1503 1505 1507 1509 1510 1512 1514 1516
1512 1514 1516 1517 1518 1519 1519 1519 1519 1519 1518 1518 1517 1517 1516 1514 1513 1512 1511 1509 1507 1506 1504 1503 1502 1501 1500 1500 1500 1499 1499 1500 1499 1500 1501 1502 1503 1505 1507 1509 1511 1513 1515
1509 1512 1514 1516 1517 1518 1519 1518 1518 1517 1517 1517 1517 1516 1515 1514 1513 1512 1510 1509 1507 1506 1504 1503 1502 1501 1500 1500 1499 1500 1499 1499 1500 1501 1501 1501 1503 1504 1506 1507 1509 1511 1513
1507 1510 1512 1514 1516 1517 1517 1517 1517 1517 1516 1516 1516 1515 1515 1514 1513 1512 1510 1509 1507 1506 1505 1504 1502 1501 1501 1500 1499 1499 1500 1499 1500 1500 1501 1501 1502 1503 1505 1506 1508 1510 1512
1505 1507 1510 1512 1514 1515 1516 1516 1516 1516 1515 1515 1515 1514 1514 1513 1512 1511 1510 1509 1507 1506 1505 1504 1503 1502 1501 1500 1499 1499 1499 1499 1499 1500 1500 1501 1502 1503 1504 1506 1507 1508 1510
1503 1505 1508 1510 1512 1513 1514 1515 1515 1515 1514 1514 1514 1513 1513 1513 1512 1511 1510 1509 1507 1506 1505 1504 1503 1502 1501 1500 1500 1499 1499 1499 1499 1500 1500 1501 1502 1503 1504 1505 1506 1507 1509